Time,TemperatureF,DewpointF,PressureIn,WindDirection,WindDirectionDegrees,WindSpeedMPH,WindSpeedGustMPH,Humidity,HourlyPrecipIn,Conditions,Clouds,dailyrainin,SoftwareType,DateUTC
2014-01-14 00:22:00,41.0,36.0,-100.00,WNW,290,7.0,12.0,81,0.00,,,-99.99,,2014-01-14 06:22:00,
2014-01-14 00:42:00,42.0,37.0,-100.00,WNW,300,9.0,15.0,82,0.00,,,-99.99,,2014-01-14 06:42:00,
2014-01-14 01:42:00,44.0,38.0,-100.00,NW,320,12.0,17.0,81,0.00,,,-99.99,,2014-01-14 07:42:00,
2014-01-14 02:22:00,45.0,37.0,-100.00,NNE,20,27.0,36.0,74,0.00,,,-99.99,,2014-01-14 08:22:00,
2014-01-14 02:42:00,43.0,36.0,-100.00,North,10,29.0,36.0,77,0.00,,,-99.99,,2014-01-14 08:42:00,
2014-01-14 03:27:00,39.0,35.0,-100.00,NNE,15,29.0,42.0,82,0.00,,,-99.99,,2014-01-14 09:27:00,
2014-01-14 05:25:00,36.0,30.0,-100.00,NNE,20,26.0,40.0,78,0.00,,,-99.99,,2014-01-14 11:25:00,
2014-01-14 05:43:00,35.0,29.0,-100.00,NNE,25,28.0,35.0,77,0.00,,,-99.99,,2014-01-14 11:43:00,
2014-01-14 06:21:00,31.0,25.0,-100.00,NNE,25,29.0,46.0,77,0.00,,,-99.99,,2014-01-14 12:21:00,
2014-01-14 06:42:00,31.0,24.0,-100.00,NNE,25,29.0,38.0,77,0.00,,,-99.99,,2014-01-14 12:42:00,
2014-01-14 07:21:00,31.0,24.0,-100.00,NNE,20,23.0,31.0,76,0.00,,,-99.99,,2014-01-14 13:21:00,
2014-01-14 07:42:00,31.0,24.0,-100.00,NNE,15,18.0,32.0,76,0.00,,,-99.99,,2014-01-14 13:42:00,
2014-01-14 08:22:00,29.0,23.0,-100.00,North,10,26.0,35.0,77,0.00,,,-99.99,,2014-01-14 14:22:00,
2014-01-14 10:13:00,27.0,18.0,-100.00,NNE,20,26.0,37.0,69,0.00,,,-99.99,,2014-01-14 16:13:00,
2014-01-14 10:23:00,27.0,18.0,-100.00,NNE,20,33.0,42.0,69,0.00,,,-99.99,,2014-01-14 16:23:00,
2014-01-14 10:42:00,27.0,18.0,-100.00,NNE,20,27.0,37.0,68,0.00,,,-99.99,,2014-01-14 16:42:00,
2014-01-14 11:22:00,26.0,19.0,-100.00,NNE,20,27.0,35.0,72,0.06,,,-99.99,,2014-01-14 17:22:00,
2014-01-14 11:43:00,24.0,21.0,-100.00,NNE,15,19.0,30.0,89,0.35,,,-99.99,,2014-01-14 17:43:00,
2014-01-14 12:22:00,27.0,16.0,-100.00,NNE,15,27.0,37.0,64,0.00,,,-99.99,,2014-01-14 18:22:00,
2014-01-14 13:11:00,26.0,15.0,-100.00,NNE,25,24.0,35.0,62,0.00,,,-99.99,,2014-01-14 19:11:00,
2014-01-14 13:21:00,25.0,18.0,-100.00,North,10,19.0,40.0,73,0.13,,,-99.99,,2014-01-14 19:21:00,
2014-01-14 13:42:00,25.0,19.0,-100.00,NNE,20,28.0,35.0,76,0.00,,,-99.99,,2014-01-14 19:42:00,
2014-01-14 15:43:00,26.0,16.0,-100.00,NNE,20,24.0,37.0,66,0.00,,,-99.99,,2014-01-14 21:43:00,
2014-01-14 16:42:00,24.0,16.0,-100.00,NNE,20,14.0,24.0,71,0.00,,,-99.99,,2014-01-14 22:42:00,
2014-01-14 17:42:00,24.0,14.0,-100.00,NNE,25,21.0,29.0,65,0.00,,,-99.99,,2014-01-14 23:42:00,
2014-01-14 18:21:00,24.0,15.0,-100.00,NNE,20,16.0,27.0,70,0.00,,,-99.99,,2014-01-15 00:21:00,
2014-01-14 19:42:00,22.0,15.0,-100.00,NNE,20,17.0,23.0,72,0.00,,,-99.99,,2014-01-15 01:42:00,
2014-01-14 20:12:00,21.0,14.0,-100.00,NNE,15,16.0,24.0,74,0.00,,,-99.99,,2014-01-15 02:12:00,
2014-01-14 21:22:00,17.0,12.0,-100.00,NNE,25,13.0,17.0,81,0.00,,,-99.99,,2014-01-15 03:22:00,
2014-01-14 21:43:00,17.0,13.0,-100.00,NNE,15,13.0,16.0,82,0.00,,,-99.99,,2014-01-15 03:43:00,
2014-01-14 22:23:00,15.0,11.0,-100.00,NNE,20,11.0,16.0,87,0.00,,,-99.99,,2014-01-15 04:23:00,
2014-01-14 22:42:00,14.0,11.0,-100.00,NNE,15,11.0,15.0,87,0.00,,,-99.99,,2014-01-15 04:42:00,
2014-01-14 23:22:00,13.0,11.0,-100.00,NNE,20,12.0,16.0,88,0.00,,,-99.99,,2014-01-15 05:22:00,
2014-01-14 23:42:00,13.0,10.0,-100.00,NNE,20,9.0,14.0,88,0.00,,,-99.99,,2014-01-15 05:42:00,